Simultaneous Nadir Overpasses (SNOs) Predictions

Prediction of SNOs between LANDSAT-8 and NOAA-19 Satellite Orbit:

Table of predicted SNOs for the next 14.0 days since TLE Epoch: 7/6/2019
Index Date (LANDSAT-8) Time (LANDSAT-8) Lat,Lon (LANDSAT-8) SZA (LANDSAT-8 ) Date (NOAA-19) Time (NOAA-19) Lat,Lon (NOAA-19) SZA (NOAA-19 ) Distance(km) Time Diff (sec)
1 07/06/2019 20:12:38 78.88,-103.09 56.83 07/06/2019 20:11:25 78.97,-103.52 56.86 13.47 73
2 07/06/2019 21:02:05 -78.89, 64.58 123.16 07/06/2019 21:02:27 -78.87, 64.44 123.18 3.24 22
3 07/09/2019 02:35:49 78.88, 161.14 57.08 07/09/2019 02:35:48 78.90, 161.03 57.08 2.67 1
4 07/11/2019 08:09:34 -78.89,-102.26 122.65 07/11/2019 08:09:17 -78.91,-102.34 122.64 2.56 17
5 07/11/2019 08:59:00 78.89, 65.35 57.36 07/11/2019 09:00:12 78.86, 65.31 57.35 3.33 72
6 07/13/2019 13:43:17 78.92, -5.50 57.70 07/13/2019 13:42:38 78.91, -5.64 57.68 3.16 39
7 07/13/2019 14:32:45 -78.89, 161.96 122.34 07/13/2019 14:33:41 -78.88, 161.83 122.34 2.92 56
8 07/15/2019 19:17:02 -78.93, 91.11 121.95 07/15/2019 19:16:06 -78.92, 91.03 121.98 2.03 56
9 07/15/2019 20:06:29 78.88,-101.54 57.99 07/15/2019 20:07:02 78.88,-101.39 58.01 3.20 33
10 07/18/2019 00:50:43 79.04,-171.69 58.56 07/18/2019 00:49:34 79.13,-173.93 58.49 48.35 69




NCC Satellite Simultaneous Nadir Overpasses (SNOs) Prediction Service
